1487188801.05,53467,13.88,74870.8,-3.33,-32.07,-32.23,0,*56
1487188802.26,53468,13.88,74870.0,-3.35,-32.13,-32.23,0,*5A
1487188803.52,53469,13.88,74870.0,-3.33,-32.23,-32.29,0,*54
1487188804.78,53470,13.88,74868.8,-3.33,-32.07,-32.23,0,*50
1487188806.0,53471,13.88,74864.5,-3.35,-32.01,-32.13,0,*52
1487188807.24,53472,13.88,74868.0,-3.35,-32.07,-32.23,0,*54
1487188808.47,53473,13.88,74868.8,-3.33,-32.13,-32.23,0,*56
1487188809.71,53474,13.88,74874.8,-3.35,-32.07,-32.23,0,*52
1487188810.92,53475,13.88,74868.8,-3.35,-32.13,-32.23,0,*56
1487188812.14,53476,13.88,74872.8,-3.35,-32.01,-32.23,0,*56
1487188813.36,53477,13.88,74876.0,-3.35,-32.01,-32.13,0,*54
1487188814.59,53478,13.88,74872.8,-3.33,-32.13,-32.23,0,*5D
1487188815.83,53479,13.88,74876.5,-3.35,-32.07,-32.23,0,*5F
1487188817.05,53480,13.88,74872.0,-3.35,-32.01,-32.13,0,*5C
1487188818.26,53481,13.88,74872.8,-3.35,-32.13,-32.23,0,*5D
1487188819.49,53482,13.88,74876.8,-3.35,-32.13,-32.29,0,*54
1487188820.73,53483,13.88,74876.8,-3.33,-32.01,-32.13,0,*59
1487188821.97,53484,13.88,74872.3,-3.35,-31.91,-32.13,0,*52
1487188823.2,53485,13.88,74874.5,-3.35,-32.07,-32.23,0,*5C
1487188824.44,53486,13.88,74882.0,-3.33,-32.23,-32.23,0,*5F
1487188825.67,53487,13.88,74884.3,-3.35,-32.13,-32.29,0,*51
1487188826.94,53488,13.88,74880.0,-3.35,-31.85,-32.07,0,*5E
1487188828.16,53489,13.88,74878.8,-3.35,-32.01,-32.23,0,*56
1487188829.37,53490,13.88,74876.0,-3.35,-32.01,-32.23,0,*5E
1487188830.66,53491,13.88,74878.3,-3.33,-31.91,-32.07,0,*55
1487188831.93,53492,13.88,74878.3,-3.35,-31.85,-32.07,0,*55
1487188833.22,53493,13.88,74880.3,-3.37,-31.95,-32.19,0,*58
1487188834.49,53494,13.88,74878.5,-3.37,-32.07,-32.13,0,*5D
1487188835.78,53495,13.88,74876.0,-3.37,-32.07,-32.19,0,*56
1487188837.06,53496,13.88,74882.5,-3.37,-32.19,-32.29,0,*59
1487188838.35,53497,13.88,74882.0,-3.37,-32.07,-32.19,0,*54
1487188839.65,53498,13.88,74878.8,-3.37,-31.95,-32.19,0,*53
1487188840.89,53499,13.88,74882.3,-3.35,-32.07,-32.23,0,*51
1487188842.12,53500,13.88,74882.0,-3.35,-31.73,-32.01,0,*50
1487188843.36,53501,13.88,74878.0,-3.39,-32.07,-32.13,0,*5E
1487188844.59,53502,13.88,74878.8,-3.39,-32.07,-32.13,0,*5D
1487188845.83,53503,13.88,74880.0,-3.35,-32.07,-32.23,0,*53
1487188847.12,53504,13.88,74880.5,-3.37,-31.95,-32.29,0,*54
1487188848.38,53505,13.88,74878.3,-3.39,-32.07,-32.19,0,*50
1487188849.65,53506,13.88,74880.8,-3.37,-31.79,-32.07,0,*58
1487188850.94,53507,13.88,74882.8,-3.37,-31.91,-31.95,0,*57
1487188852.2,53508,13.88,74882.8,-3.39,-31.91,-32.07,0,*5E
1487188853.46,53509,13.88,74880.5,-3.37,-31.79,-31.95,0,*5F
1487188854.72,53510,13.88,74882.8,-3.39,-31.91,-31.95,0,*5F
1487188856.01,53511,13.88,74886.0,-3.37,-31.95,-31.91,0,*50
1487188857.27,53512,13.88,74882.3,-3.37,-31.79,-31.91,0,*51
1487188858.51,53513,13.88,74882.8,-3.39,-31.79,-31.95,0,*5A
1487188859.77,53514,13.88,74882.3,-3.37,-31.79,-31.91,0,*57
1487188861.03,53515,13.88,74880.5,-3.37,-31.73,-31.79,0,*5A
1487188862.32,53516,13.88,74878.8,-3.37,-31.57,-31.91,0,*59
1487188863.58,53517,13.88,74878.0,-3.37,-31.91,-32.13,0,*5B
1487188864.84,53518,13.88,74876.8,-3.37,-31.95,-32.13,0,*50
1487188866.1,53519,13.88,74878.8,-3.37,-31.91,-32.13,0,*55
1487188867.39,53520,13.88,74878.8,-3.37,-32.07,-32.19,0,*59
1487188868.68,53521,13.88,74880.0,-3.37,-32.07,-32.19,0,*58
1487188869.94,53522,13.88,74876.8,-3.37,-32.13,-32.29,0,*5D
1487188871.23,53523,13.88,74880.3,-3.37,-31.95,-32.19,0,*52
1487188872.49,53524,13.88,74880.3,-3.37,-31.91,-32.13,0,*5B
1487188873.73,53525,13.88,74882.8,-3.39,-31.79,-31.91,0,*5B
1487188875.02,53526,13.88,74880.3,-3.37,-31.73,-31.95,0,*58
1487188876.28,53527,13.88,74880.3,-3.37,-31.79,-32.07,0,*5B
1487188877.55,53528,13.88,74878.8,-3.37,-31.79,-31.95,0,*5C
1487188878.81,53529,13.88,74878.5,-3.37,-31.79,-32.07,0,*55
1487188880.04,53530,13.88,74880.3,-3.39,-31.91,-32.13,0,*50
1487188881.33,53531,13.88,74880.5,-3.37,-31.95,-32.29,0,*52
1487188882.59,53532,13.88,74876.5,-3.37,-31.91,-32.13,0,*5C
1487188883.88,53533,13.88,74876.8,-3.37,-31.91,-32.07,0,*58
1487188885.14,53534,13.88,74878.8,-3.39,-31.95,-32.19,0,*5A
1487188886.4,53535,13.88,74880.8,-3.39,-32.07,-32.19,0,*53
1487188887.67,53536,13.88,74876.5,-3.37,-31.79,-32.07,0,*5B
1487188888.96,53537,13.88,74882.5,-3.37,-31.91,-32.07,0,*5C
1487188890.22,53538,13.88,74882.5,-3.37,-32.07,-32.13,0,*5A
1487188891.45,53539,13.88,74880.5,-3.37,-31.79,-32.13,0,*51
1487188892.71,53540,13.88,74880.8,-3.37,-31.91,-32.13,0,*59
1487188893.95,53541,13.88,74880.5,-3.37,-31.79,-32.13,0,*5E
1487188895.24,53542,13.88,74882.5,-3.37,-32.07,-32.29,0,*5E
1487188896.5,53543,13.88,74882.0,-3.39,-31.95,-32.19,0,*5A
1487188897.79,53544,13.88,74886.3,-3.37,-31.95,-32.07,0,*5C
1487188899.08,53545,13.88,74880.3,-3.37,-32.07,-32.19,0,*5A
1487188900.31,53546,13.88,74882.3,-3.39,-32.13,-32.29,0,*51
1487188901.57,53547,13.88,74880.0,-3.37,-32.07,-32.13,0,*52
1487188902.8,53548,13.88,74880.0,-3.39,-31.91,-32.13,0,*5F
1487188904.03,53549,13.88,74878.0,-3.39,-31.91,-32.13,0,*5E
1487188905.32,53550,13.88,74878.8,-3.37,-32.07,-32.29,0,*5D
1487188906.55,53551,13.88,74878.3,-3.39,-31.91,-32.13,0,*57
1487188907.83,53552,13.88,74882.0,-3.37,-32.07,-32.29,0,*5F
1487188909.09,53553,13.88,74878.3,-3.39,-32.19,-32.29,0,*5F
1487188910.34,53554,13.88,74882.8,-3.37,-32.13,-32.29,0,*5C
1487188911.57,53555,13.88,74882.0,-3.39,-32.13,-32.29,0,*53
1487188912.83,53556,13.88,74880.3,-3.39,-32.07,-32.19,0,*56
1487188914.09,53557,13.88,74878.5,-3.39,-32.07,-32.29,0,*54
1487188915.3,53558,13.88,74876.5,-3.39,-32.13,-32.35,0,*53
1487188916.53,53559,13.88,74876.8,-3.39,-32.19,-32.35,0,*58
1487188917.76,53560,13.88,74878.0,-3.39,-32.19,-32.35,0,*52
1487188919.02,53561,13.88,74874.3,-3.39,-32.19,-32.45,0,*54
1487188920.25,53562,13.88,74878.0,-3.39,-32.19,-32.35,0,*50
1487188921.45,53563,13.88,74884.3,-3.39,-32.13,-32.35,0,*5B
1487188922.71,53564,13.88,74882.5,-3.39,-32.07,-32.29,0,*54
1487188923.97,53565,13.88,74882.5,-3.39,-32.07,-32.19,0,*56
1487188925.2,53566,13.88,74886.0,-3.43,-32.13,-32.23,0,*54
1487188926.46,53567,13.88,74882.5,-3.43,-32.01,-32.19,0,*5F
1487188927.75,53568,13.88,74880.3,-3.43,-31.85,-32.19,0,*5F
1487188928.98,53569,13.88,74876.5,-3.43,-32.13,-32.35,0,*5C
1487188930.24,53570,13.88,74876.8,-3.43,-32.19,-32.35,0,*5E
1487188931.49,53571,13.88,74878.3,-3.43,-32.19,-32.35,0,*5F
1487188932.72,53572,13.88,74876.8,-3.43,-32.23,-32.39,0,*59
1487188933.95,53573,13.88,74880.5,-3.43,-32.13,-32.35,0,*57
1487188935.18,53574,13.88,74876.5,-3.43,-32.23,-32.39,0,*5F
1487188936.44,53575,13.88,74872.5,-3.43,-32.19,-32.39,0,*57
1487188937.67,53576,13.88,74868.3,-3.43,-32.23,-32.35,0,*51
1487188938.87,53577,13.88,74876.3,-3.45,-32.23,-32.39,0,*5A
1487188940.1,53578,13.88,74876.3,-3.45,-32.29,-32.39,0,*5F
1487188941.33,53579,13.88,74874.5,-3.45,-32.19,-32.39,0,*5D
1487188942.56,53580,13.88,74878.0,-3.45,-32.29,-32.39,0,*58
1487188943.76,53581,13.88,74878.5,-3.45,-32.23,-32.39,0,*53
1487188944.99,53582,13.88,74878.5,-3.45,-32.29,-32.39,0,*5A
1487188946.24,53583,13.88,74874.8,-3.45,-32.29,-32.45,0,*50
1487188947.5,53584,13.88,74878.3,-3.45,-32.07,-32.29,0,*51
1487188948.73,53585,13.88,74876.3,-3.45,-32.07,-32.39,0,*51
1487188950.02,53586,13.88,74874.3,-3.43,-31.95,-32.19,0,*5E
1487188951.23,53587,13.88,74878.3,-3.45,-32.01,-32.23,0,*5E
1487188952.46,53588,13.88,74876.5,-3.45,-32.01,-32.19,0,*58
1487188953.7,53589,13.88,74878.8,-3.45,-32.07,-32.23,0,*56
1487188954.93,53590,13.88,74876.3,-3.45,-32.19,-32.39,0,*5A
1487188956.19,53591,13.88,74880.8,-3.45,-31.91,-32.07,0,*55
1487188957.4,53592,13.88,74880.3,-3.45,-32.01,-32.23,0,*5A
1487188958.6,53593,13.88,74876.8,-3.45,-32.01,-32.23,0,*5B
1487188959.87,53594,13.88,74876.3,-3.45,-32.07,-32.19,0,*53
1487188961.13,53595,13.88,74878.8,-3.47,-32.07,-32.39,0,*52
1487188962.38,53596,13.88,74876.8,-3.47,-32.07,-32.23,0,*5A
1487188963.61,53597,13.88,74878.3,-3.43,-32.01,-32.13,0,*5A
1487188964.87,53598,13.88,74872.5,-3.45,-32.19,-32.29,0,*53
1487188966.12,53599,13.88,74878.8,-3.45,-32.19,-32.29,0,*52
1487188967.37,53600,13.88,74874.5,-3.45,-32.07,-32.29,0,*5E
1487188968.6,53601,13.88,74882.5,-3.43,-32.13,-32.35,0,*51
1487188969.85,53602,13.88,74882.0,-3.45,-32.19,-32.29,0,*53
1487188971.11,53603,13.88,74882.3,-3.45,-32.19,-32.29,0,*52
1487188972.36,53604,13.88,74876.5,-3.45,-32.07,-32.29,0,*5A
1487188973.62,53605,13.88,74880.5,-3.45,-32.07,-32.29,0,*5B
1487188974.89,53606,13.88,74880.0,-3.47,-32.07,-32.29,0,*5A
1487188976.15,53607,13.88,74882.8,-3.47,-32.19,-32.23,0,*5E
1487188977.35,53608,13.88,74880.5,-3.49,-32.23,-32.35,0,*51
1487188978.61,53609,13.88,74880.3,-3.47,-32.19,-32.39,0,*5B
1487188979.86,53610,13.88,74886.5,-3.47,-32.19,-32.39,0,*53
1487188981.15,53611,13.88,74884.8,-3.47,-32.07,-32.19,0,*5F
1487188982.41,53612,13.88,74886.0,-3.45,-31.91,-32.19,0,*52
1487188983.67,53613,13.88,74886.3,-3.47,-32.01,-32.19,0,*5B
1487188984.92,53614,13.88,74884.3,-3.47,-32.07,-32.23,0,*53
1487188986.2,53615,13.88,74886.0,-3.47,-32.19,-32.29,0,*57
1487188987.48,53616,13.88,74882.8,-3.47,-31.91,-32.19,0,*54
1487188988.71,53617,13.88,74880.5,-3.49,-32.13,-32.29,0,*51
1487188989.93,53618,13.88,74878.5,-3.47,-32.13,-32.35,0,*5D
1487188991.19,53619,13.88,74878.0,-3.45,-32.19,-32.29,0,*59
1487188992.42,53620,13.88,74878.8,-3.47,-32.01,-32.23,0,*52
1487188993.68,53621,13.88,74880.3,-3.47,-32.07,-32.39,0,*5E
1487188994.91,53622,13.88,74880.5,-3.49,-32.35,-32.45,0,*59
1487188996.16,53623,13.88,74878.0,-3.47,-32.19,-32.23,0,*58
1487188997.36,53624,13.88,74882.3,-3.49,-32.13,-32.23,0,*5B
1487188998.65,53625,13.88,74884.3,-3.47,-31.91,-32.07,0,*5B
1487188999.9,53626,13.88,74890.0,-3.47,-32.07,-32.23,0,*52
1487189001.15,53627,13.88,74886.5,-3.47,-31.91,-32.01,0,*5F
1487189002.4,53628,13.88,74882.5,-3.47,-31.67,-31.91,0,*53
1487189003.65,53629,13.88,74882.5,-3.47,-31.67,-31.91,0,*52
1487189004.94,53630,13.88,74886.8,-3.47,-31.85,-32.07,0,*5A
1487189006.22,53631,13.88,74886.3,-3.47,-31.91,-32.19,0,*51
1487189007.5,53632,13.88,74884.3,-3.47,-31.91,-32.19,0,*52
1487189008.78,53633,13.88,74876.5,-3.47,-31.91,-32.07,0,*5C
1487189010.06,53634,13.88,74878.0,-3.47,-31.91,-32.19,0,*54
1487189011.32,53635,13.88,74876.5,-3.49,-32.07,-32.29,0,*54
1487189012.6,53636,13.88,74880.3,-3.47,-32.19,-32.29,0,*56
1487189013.85,53637,13.88,74882.3,-3.47,-32.01,-32.29,0,*5E
1487189015.06,53638,13.88,74886.0,-3.45,-32.01,-32.23,0,*59
1487189016.29,53639,13.88,74884.8,-3.49,-32.13,-32.29,0,*5D
1487189017.54,53640,13.88,74880.8,-3.47,-31.85,-32.01,0,*5B
1487189018.79,53641,13.88,74878.3,-3.47,-31.91,-32.23,0,*5F
1487189020.08,53642,13.88,74882.8,-3.47,-31.85,-32.07,0,*5F
1487189021.32,53643,13.88,74876.0,-3.49,-31.79,-32.07,0,*53
1487189022.6,53644,13.88,74876.3,-3.47,-31.85,-31.91,0,*55
1487189023.86,53645,13.88,74886.8,-3.47,-32.01,-32.07,0,*57
1487189025.14,53646,13.88,74886.3,-3.47,-32.07,-32.19,0,*5D
1487189026.42,53647,13.88,74880.0,-3.47,-31.73,-31.73,0,*53
1487189027.65,53648,13.88,74882.8,-3.49,-31.45,-31.73,0,*57
1487189028.9,53649,13.88,74884.5,-3.47,-31.67,-31.73,0,*58
1487189030.15,53650,13.88,74886.5,-3.47,-31.85,-32.01,0,*5A
1487189031.38,53651,13.88,74890.0,-3.47,-32.01,-32.23,0,*54
1487189032.64,53652,13.88,74884.0,-3.45,-31.91,-32.07,0,*59
1487189033.9,53653,13.88,74886.5,-3.45,-31.73,-31.91,0,*58
1487189035.18,53654,13.88,74888.8,-3.47,-31.91,-32.19,0,*52
1487189036.46,53655,13.88,74884.0,-3.47,-31.91,-32.07,0,*5C
1487189037.74,53656,13.88,74888.3,-3.47,-32.07,-32.07,0,*53
1487189039.03,53657,13.88,74890.5,-3.47,-31.85,-31.91,0,*57
1487189040.28,53658,13.88,74886.8,-3.47,-31.85,-32.01,0,*52
1487189041.56,53659,13.88,74876.3,-3.47,-31.85,-32.07,0,*55
1487189042.84,53660,13.88,74876.0,-3.47,-31.73,-31.85,0,*5F
1487189044.07,53661,13.88,74872.5,-3.45,-31.85,-32.01,0,*5A
1487189045.33,53662,13.88,74874.0,-3.45,-31.85,-32.07,0,*5F
1487189046.57,53663,13.88,74874.3,-3.45,-32.01,-32.19,0,*5E
1487189047.8,53664,13.88,74874.8,-3.45,-32.19,-32.39,0,*52
1487189049.01,53665,13.88,74872.8,-3.45,-32.23,-32.39,0,*5A
1487189050.27,53666,13.88,74872.0,-3.43,-32.13,-32.19,0,*5E
1487189051.52,53667,13.88,74874.0,-3.47,-31.85,-32.01,0,*5E
1487189052.75,53668,13.88,74876.3,-3.47,-32.01,-32.23,0,*5E
1487189054.03,53669,13.88,74874.5,-3.47,-31.91,-32.07,0,*53
1487189055.31,53670,13.88,74876.0,-3.47,-31.91,-32.07,0,*5B
1487189056.57,53671,13.88,74878.3,-3.47,-32.07,-32.23,0,*50
1487189057.81,53672,13.88,74882.0,-3.45,-32.01,-32.19,0,*5E
1487189059.03,53673,13.88,74872.0,-3.45,-31.91,-32.01,0,*5C
1487189060.29,53674,13.88,74868.0,-3.45,-31.91,-32.07,0,*5D
1487189061.52,53675,13.88,74868.0,-3.45,-31.91,-32.23,0,*5A
1487189062.75,53676,13.88,74866.3,-3.45,-32.19,-32.23,0,*5A
1487189063.98,53677,13.88,74868.5,-3.45,-32.19,-32.39,0,*50
1487189065.19,53678,13.88,74872.0,-3.45,-32.01,-32.23,0,*5D
1487189066.42,53679,13.88,74874.8,-3.45,-32.07,-32.23,0,*5A
1487189067.68,53680,13.88,74876.3,-3.45,-32.19,-32.29,0,*59
1487189068.91,53681,13.88,74876.5,-3.45,-32.19,-32.39,0,*59
1487189070.14,53682,13.88,74872.3,-3.45,-32.07,-32.23,0,*5E
1487189071.42,53683,13.88,74876.3,-3.47,-32.19,-32.29,0,*58
1487189072.67,53684,13.88,74878.5,-3.47,-32.19,-32.39,0,*5E
1487189073.92,53685,13.88,74872.0,-3.47,-32.23,-32.29,0,*57
1487189075.2,53686,13.88,74876.8,-3.47,-32.07,-32.19,0,*51
1487189076.46,53687,13.88,74880.5,-3.47,-32.01,-32.19,0,*56
1487189077.7,53688,13.88,74878.5,-3.49,-31.95,-32.13,0,*53
1487189078.94,53689,13.88,74878.3,-3.49,-31.79,-31.95,0,*5D
1487189080.22,53690,13.88,74880.0,-3.47,-31.73,-31.91,0,*55
1487189081.43,53691,13.88,74876.0,-3.45,-32.01,-32.23,0,*5A
1487189082.69,53692,13.88,74880.8,-3.47,-32.01,-32.07,0,*5D
1487189083.94,53693,13.88,74878.0,-3.47,-32.07,-32.23,0,*5C
1487189085.19,53694,13.88,74872.0,-3.47,-31.91,-32.01,0,*57
1487189086.42,53695,13.88,74876.3,-3.45,-32.19,-32.23,0,*57
1487189087.68,53696,13.88,74876.5,-3.45,-32.19,-32.29,0,*5E
1487189088.93,53697,13.88,74882.8,-3.45,-32.07,-32.29,0,*50
1487189090.14,53698,13.88,74880.5,-3.45,-32.01,-32.23,0,*53
1487189091.4,53699,13.88,74876.5,-3.47,-32.01,-32.19,0,*59
1487189092.68,53700,13.88,74872.0,-3.47,-31.91,-32.07,0,*5D
1487189093.97,53701,13.88,74876.5,-3.47,-32.07,-32.19,0,*5F
1487189095.25,53702,13.88,74878.5,-3.47,-31.91,-32.07,0,*5F
1487189096.53,53703,13.88,74876.3,-3.47,-31.91,-32.19,0,*51
1487189097.78,53704,13.88,74874.5,-3.43,-31.95,-32.13,0,*5C
1487189099.04,53705,13.88,74878.8,-3.45,-32.07,-32.29,0,*5A
1487189100.28,53706,13.88,74876.3,-3.45,-32.01,-32.19,0,*5C
1487189101.51,53707,13.88,74872.0,-3.45,-32.07,-32.23,0,*52
1487189102.71,53708,13.88,74876.0,-3.45,-32.23,-32.39,0,*50
1487189103.92,53709,13.88,74876.3,-3.49,-32.23,-32.35,0,*51
1487189105.2,53710,13.88,74876.8,-3.47,-32.07,-32.29,0,*5C
1487189106.47,53711,13.88,74876.3,-3.47,-32.19,-32.29,0,*52
1487189107.75,53712,13.88,74876.5,-3.47,-32.19,-32.29,0,*51
1487189109.0,53713,13.88,74872.8,-3.45,-32.19,-32.29,0,*52
1487189110.23,53714,13.88,74872.5,-3.45,-31.91,-32.23,0,*5C
1487189111.46,53715,13.81,74868.5,-3.45,-32.01,-32.19,0,*5E
1487189112.7,53716,13.88,74874.3,-3.47,-32.01,-32.23,0,*56
1487189113.95,53717,13.88,74872.0,-3.47,-32.07,-32.23,0,*51
1487189115.18,53718,13.88,74868.0,-3.47,-32.01,-32.23,0,*58
1487189116.47,53719,13.88,74876.3,-3.47,-31.91,-32.07,0,*55
1487189117.74,53720,13.88,74878.3,-3.47,-32.19,-32.29,0,*50
1487189118.99,53721,13.88,74880.3,-3.47,-32.23,-32.29,0,*58
1487189120.26,53722,13.88,74876.3,-3.47,-32.19,-32.29,0,*52
1487189121.54,53723,13.88,74876.0,-3.47,-31.91,-32.07,0,*5C
1487189122.82,53724,13.88,74874.5,-3.47,-31.91,-32.07,0,*5B
1487189124.06,53725,13.88,74882.5,-3.45,-32.01,-32.19,0,*5D
1487189125.3,53726,13.88,74882.0,-3.45,-32.01,-32.19,0,*5E
1487189126.58,53727,13.88,74878.8,-3.47,-32.07,-32.19,0,*5B
1487189127.87,53728,13.88,74882.3,-3.47,-32.07,-32.19,0,*54
1487189129.13,53729,13.88,74882.5,-3.47,-32.01,-32.19,0,*53
1487189130.38,53730,13.88,74880.8,-3.47,-32.07,-32.23,0,*54
1487189131.64,53731,13.88,74878.8,-3.47,-32.19,-32.39,0,*51
1487189132.92,53732,13.88,74882.5,-3.47,-31.85,-31.91,0,*55
1487189134.18,53733,13.88,74878.0,-3.47,-32.01,-32.19,0,*58
1487189135.44,53734,13.88,74880.8,-3.47,-32.07,-32.23,0,*50
1487189136.67,53735,13.88,74876.8,-3.45,-32.01,-32.07,0,*53
1487189137.94,53736,13.88,74876.0,-3.47,-32.01,-32.07,0,*52
1487189139.17,53737,13.88,74878.5,-3.47,-32.01,-32.23,0,*55
1487189140.39,53738,13.88,74876.0,-3.47,-32.23,-32.39,0,*51
1487189141.65,53739,13.88,74876.0,-3.45,-32.07,-32.29,0,*55
1487189142.9,53740,13.88,74874.8,-3.45,-32.19,-32.29,0,*54
1487189144.13,53741,13.88,74880.5,-3.45,-32.07,-32.23,0,*50
1487189145.39,53742,13.81,74878.3,-3.47,-32.19,-32.23,0,*5E
1487189146.61,53743,13.88,74882.5,-3.47,-32.23,-32.39,0,*5D
1487189147.89,53744,13.88,74884.8,-3.47,-32.07,-32.29,0,*5D
1487189149.17,53745,13.88,74880.3,-3.47,-31.91,-32.07,0,*5C
1487189150.41,53746,13.88,74878.8,-3.49,-31.85,-32.13,0,*51
1487189151.66,53747,13.88,74880.8,-3.47,-32.39,-32.45,0,*59
1487189152.88,53748,13.88,74882.3,-3.47,-32.39,-32.57,0,*55
1487189154.12,53749,13.88,74878.8,-3.49,-32.39,-32.45,0,*59
1487189155.37,53750,13.88,74878.5,-3.47,-32.19,-32.39,0,*56
1487189156.63,53751,13.88,74880.0,-3.49,-32.29,-32.45,0,*51
1487189157.91,53752,13.88,74884.5,-3.47,-32.07,-32.29,0,*5A
1487189159.18,53753,13.88,74880.5,-3.47,-32.07,-32.29,0,*5B
1487189160.46,53754,13.88,74884.3,-3.47,-32.07,-32.29,0,*5C
1487189161.67,53755,13.88,74876.3,-3.49,-32.13,-32.23,0,*5C
1487189162.91,53756,13.88,74872.8,-3.49,-32.07,-32.23,0,*5A
1487189164.17,53757,13.88,74876.3,-3.47,-32.01,-32.19,0,*5A
1487189165.42,53758,13.88,74878.3,-3.47,-31.91,-32.01,0,*56
1487189166.65,53759,13.88,74874.3,-3.49,-32.07,-32.13,0,*56
1487189167.88,53760,13.88,74876.0,-3.49,-32.23,-32.29,0,*53
1487189169.13,53761,13.88,74874.5,-3.47,-32.29,-32.39,0,*57
1487189170.37,53762,13.88,74880.0,-3.47,-32.23,-32.29,0,*5F
1487189171.64,53763,13.88,74878.0,-3.49,-32.19,-32.45,0,*53
1487189172.87,53764,13.88,74878.5,-3.49,-32.07,-32.23,0,*5B
1487189174.11,53765,13.88,74876.8,-3.49,-31.95,-32.13,0,*51
1487189175.36,53766,13.88,74878.0,-3.47,-32.19,-32.39,0,*53
1487189176.61,53767,13.88,74882.0,-3.47,-32.23,-32.29,0,*5A
1487189177.83,53768,13.88,74882.8,-3.47,-32.23,-32.35,0,*58
1487189179.11,53769,13.88,74882.5,-3.47,-32.07,-32.29,0,*52
1487189180.31,53770,13.88,74878.0,-3.49,-32.23,-32.35,0,*5F
1487189181.59,53771,13.88,74878.0,-3.47,-32.19,-32.29,0,*54
1487189182.82,53772,13.81,74878.0,-3.49,-32.13,-32.45,0,*59
1487189184.05,53773,13.88,74884.0,-3.49,-32.29,-32.39,0,*5A
1487189185.28,53774,13.88,74882.5,-3.49,-32.35,-32.45,0,*5B
1487189186.51,53775,13.88,74882.3,-3.49,-32.13,-32.29,0,*54
1487189187.74,53776,13.81,74878.5,-3.49,-32.35,-32.45,0,*59
1487189189.0,53777,13.88,74878.0,-3.49,-32.45,-32.45,0,*5F
1487189190.25,53778,13.88,74878.3,-3.49,-32.29,-32.45,0,*5A
1487189191.48,53779,13.81,74876.8,-3.49,-32.35,-32.45,0,*56
1487189192.74,53780,13.88,74880.0,-3.49,-31.95,-32.29,0,*53
1487189193.99,53781,13.88,74882.5,-3.51,-32.13,-32.29,0,*56
1487189195.25,53782,13.88,74882.5,-3.51,-32.29,-32.35,0,*51
1487189196.5,53783,13.88,74880.8,-3.51,-32.13,-32.29,0,*54
1487189197.76,53784,13.88,74876.0,-3.47,-32.19,-32.39,0,*5F
1487189199.01,53785,13.88,74876.0,-3.51,-32.13,-32.29,0,*52
1487189200.25,53786,13.88,74874.8,-3.51,-32.13,-32.35,0,*5C
1487189201.47,53787,13.88,74876.8,-3.51,-32.23,-32.35,0,*5E
1487189202.68,53788,13.88,74876.8,-3.49,-32.13,-32.23,0,*5C
1487189203.91,53789,13.88,74878.5,-3.49,-32.13,-32.29,0,*57
1487189205.15,53790,13.81,74878.0,-3.49,-32.07,-32.23,0,*50
1487189206.38,53791,13.88,74878.5,-3.49,-32.35,-32.45,0,*50
1487189207.61,53792,13.81,74874.8,-3.51,-32.35,-32.51,0,*5F
1487189208.86,53793,13.88,74878.5,-3.51,-32.13,-32.29,0,*55
1487189210.1,53794,13.81,74876.5,-3.49,-32.07,-32.23,0,*54
1487189211.31,53795,13.81,74878.0,-3.53,-32.13,-32.23,0,*5B
1487189212.54,53796,13.88,74880.0,-3.49,-32.23,-32.29,0,*5A
1487189213.76,53797,13.88,74878.0,-3.49,-32.35,-32.45,0,*56
1487189215.02,53798,13.88,74878.3,-3.51,-32.29,-32.35,0,*5A
1487189216.3,53799,13.88,74876.8,-3.51,-32.29,-32.45,0,*5C
1487189217.56,53800,13.88,74876.3,-3.49,-32.07,-32.29,0,*5C
1487189218.77,53801,13.88,74876.8,-3.53,-32.39,-32.69,0,*5F
1487189219.97,53802,13.88,74876.8,-3.53,-32.35,-32.57,0,*5D
1487189221.22,53803,13.88,74878.3,-3.51,-32.29,-32.35,0,*57
1487189222.48,53804,13.88,74878.8,-3.53,-32.29,-32.45,0,*55
1487189223.72,53805,13.88,74878.8,-3.53,-32.19,-32.51,0,*52
1487189224.95,53806,13.88,74876.5,-3.51,-32.23,-32.35,0,*58
1487189226.21,53807,13.88,74878.5,-3.51,-32.23,-32.29,0,*54
1487189227.44,53808,13.88,74878.5,-3.49,-31.95,-32.23,0,*56
1487189228.65,53809,13.81,74872.8,-3.53,-32.35,-32.51,0,*50
1487189229.88,53810,13.88,74874.8,-3.53,-32.35,-32.45,0,*5D
1487189231.11,53811,13.88,74878.0,-3.51,-32.23,-32.35,0,*5E
1487189232.34,53812,13.88,74876.3,-3.53,-32.13,-32.29,0,*51
1487189233.55,53813,13.88,74876.8,-3.53,-32.13,-32.13,0,*59
1487189234.79,53814,13.88,74876.8,-3.53,-32.19,-32.39,0,*5C
1487189236.03,53815,13.88,74876.5,-3.53,-32.01,-32.19,0,*56
1487189237.24,53816,13.88,74878.0,-3.53,-32.13,-32.35,0,*58
1487189238.47,53817,13.88,74876.3,-3.53,-32.23,-32.29,0,*57
1487189239.7,53818,13.88,74878.3,-3.53,-32.29,-32.39,0,*53
1487189240.94,53819,13.88,74876.5,-3.53,-32.29,-32.51,0,*5C
1487189242.18,53820,13.81,74872.8,-3.53,-32.29,-32.51,0,*56
1487189243.41,53821,13.81,74872.8,-3.53,-32.29,-32.39,0,*59
1487189244.69,53822,13.88,74878.0,-3.51,-31.95,-32.29,0,*5D
1487189245.9,53823,13.88,74878.5,-3.53,-32.13,-32.35,0,*5E
1487189247.16,53824,13.88,74876.0,-3.53,-32.19,-32.29,0,*5E
1487189248.4,53825,13.88,74876.5,-3.53,-32.19,-32.35,0,*52
1487189249.63,53826,13.81,74874.3,-3.53,-32.29,-32.39,0,*5E
1487189250.85,53827,13.88,74878.8,-3.53,-32.39,-32.51,0,*50
1487189252.05,53828,13.88,74878.3,-3.53,-32.39,-32.57,0,*59
1487189253.26,53829,13.81,74874.3,-3.53,-32.51,-32.57,0,*56
1487189254.5,53830,13.88,74880.5,-3.53,-32.19,-32.39,0,*5A
1487189255.73,53831,13.88,74878.3,-3.53,-32.29,-32.39,0,*58
1487189256.97,53832,13.88,74876.0,-3.53,-32.19,-32.35,0,*54
1487189258.24,53833,13.88,74876.0,-3.55,-32.19,-32.29,0,*5E
1487189259.5,53834,13.88,74878.0,-3.55,-32.19,-32.39,0,*58
1487189260.78,53835,13.81,74874.5,-3.55,-32.19,-32.29,0,*58
1487189262.04,53836,13.81,74872.8,-3.53,-32.19,-32.29,0,*5D
1487189263.31,53837,13.88,74876.8,-3.55,-32.01,-32.19,0,*50
1487189264.56,53838,13.81,74876.0,-3.55,-32.19,-32.35,0,*58
1487189265.81,53839,13.88,74876.5,-3.55,-32.29,-32.39,0,*56
1487189267.05,53840,13.88,74880.8,-3.53,-32.19,-32.35,0,*51
1487189268.31,53841,13.81,74876.0,-3.55,-32.19,-32.39,0,*5A
1487189269.56,53842,13.88,74882.5,-3.55,-32.29,-32.39,0,*5A
1487189270.79,53843,13.81,74874.8,-3.53,-32.29,-32.35,0,*51
1487189272.05,53844,13.81,74878.5,-3.55,-32.29,-32.39,0,*5C
1487189273.31,53845,13.88,74882.0,-3.51,-31.95,-32.23,0,*56
1487189274.56,53846,13.88,74886.3,-3.55,-32.13,-32.29,0,*56
1487189275.85,53847,13.81,74882.0,-3.55,-32.19,-32.19,0,*5E
1487189277.11,53848,13.81,74882.5,-3.55,-32.01,-32.19,0,*58
1487189278.34,53849,13.88,74882.8,-3.55,-32.01,-32.13,0,*53
1487189279.6,53850,13.81,74880.8,-3.55,-32.19,-32.35,0,*56
1487189280.86,53851,13.88,74882.8,-3.55,-32.13,-32.19,0,*53
1487189282.1,53852,13.81,74876.5,-3.57,-32.07,-32.23,0,*5E
1487189283.33,53853,13.81,74872.0,-3.55,-32.13,-32.35,0,*5F
1487189284.58,53854,13.88,74874.3,-3.55,-32.19,-32.35,0,*52
1487189285.82,53855,13.88,74874.8,-3.53,-32.19,-32.35,0,*55
1487189287.09,53856,13.81,74872.8,-3.57,-32.07,-32.19,0,*53
1487189288.35,53857,13.88,74874.0,-3.55,-32.13,-32.19,0,*55
1487189289.64,53858,13.81,74874.8,-3.55,-31.95,-31.95,0,*50
1487189290.87,53859,13.88,74876.3,-3.53,-31.95,-32.13,0,*5A
1487189292.1,53860,13.81,74864.5,-3.53,-32.13,-32.29,0,*54
1487189293.32,53861,13.88,74872.8,-3.53,-32.01,-32.01,0,*5C
1487189294.56,53862,13.88,74882.8,-3.53,-32.01,-32.19,0,*56
1487189295.77,53863,13.81,74884.0,-3.53,-32.01,-32.13,0,*5D
1487189297.03,53864,13.88,74886.3,-3.55,-31.79,-31.95,0,*5D
1487189298.29,53865,13.81,74882.3,-3.55,-31.79,-31.85,0,*5D
1487189299.52,53866,13.81,74882.5,-3.55,-31.67,-31.79,0,*52